KF5PJP Weather Reports


Display with metric or nautical units.
time (UTC)temp
F
wind
direction
speed
MPH
gust
MPH
rain 1hr
in
rain 24hr
in
rain mn
in
humidity
%
barometer
mb
20260508073420 58 123 0.0 0.0 0.00 0.00 0.00 89 1014.2
20260508072920 58 123 0.0 0.0 0.00 0.00 0.00 89 1014.3
20260508072435 58 123 0.0 0.0 0.00 0.00 0.00 89 1014.3
20260508071359 58 123 0.0 0.0 0.00 0.00 0.00 89 1014.4
20260508070940 59 123 0.0 0.0 0.00 0.00 0.00 89 1014.4
20260508070357 59 123 0.0 0.0 0.00 0.00 0.00 88 1014.6
20260508065908 59 123 0.0 0.0 0.00 0.00 0.00 88 1014.8
20260508065403 59 123 0.0 0.0 0.00 0.00 0.00 89 1014.8
20260508064912 59 123 0.0 0.0 0.00 0.00 0.00 88 1014.6
20260508064350 59 123 0.0 0.0 0.00 0.00 0.00 88 1014.7
20260508063906 59 123 0.0 0.0 0.00 0.00 0.00 89 1014.7
20260508063436 59 123 0.0 0.0 0.00 0.00 0.00 89 1014.7
20260508062911 59 123 0.0 0.0 0.00 0.00 0.00 89 1014.6
20260508062412 59 123 0.0 0.0 0.00 0.00 0.00 89 1014.5
20260508061849 59 123 0.0 0.0 0.00 0.00 0.00 89 1014.5
20260508061350 59 123 0.0 0.0 0.00 0.00 0.00 90 1014.5
20260508060910 59 123 0.0 0.0 0.00 0.00 0.00 89 1014.4
20260508060345 59 123 0.0 0.0 0.00 0.00 0.00 89 1014.2
20260508055907 59 123 0.0 0.0 0.00 0.00 0.00 90 1014.3
20260508055353 59 123 0.0 0.0 0.00 0.00 0.00 90 1014.2
20260508054914 59 123 0.0 0.0 0.00 0.00 0.00 90 1014.3
20260508054348 59 123 0.0 0.0 0.00 0.00 0.00 90 1014.4
20260508053900 59 123 0.0 0.0 0.00 0.00 0.00 90 1014.4
20260508053408 59 123 0.0 0.0 0.00 0.00 0.00 90 1014.5
20260508052917 59 123 0.0 0.0 0.00 0.00 0.00 89 1014.6
20260508052420 60 123 0.0 0.0 0.00 0.00 0.00 89 1014.7
20260508051859 60 123 0.0 0.0 0.00 0.00 0.00 89 1014.5
20260508051351 60 123 0.0 0.0 0.00 0.00 0.00 89 1014.7
20260508050910 60 123 0.0 0.0 0.00 0.00 0.00 89 1014.7
20260508050405 60 123 0.0 0.0 0.00 0.00 0.00 89 1014.8
20260508045921 60 123 0.0 0.0 0.00 0.00 0.00 88 1015.0
20260508045359 60 123 0.0 0.0 0.00 0.00 0.00 88 1015.0
20260508044937 60 123 0.0 0.0 0.00 0.00 0.00 88 1015.1
20260508043918 60 123 0.0 0.0 0.00 0.00 0.00 88 1015.0
20260508043453 60 123 0.0 0.0 0.00 0.00 0.00 87 1015.2
20260508042901 60 123 0.0 0.0 0.00 0.00 0.00 88 1015.2
20260508041904 60 123 0.0 0.0 0.00 0.00 0.00 87 1015.0
20260508040902 61 123 0.0 0.0 0.00 0.00 0.00 87 1014.8
20260508035902 61 123 0.0 0.0 0.00 0.00 0.00 86 1015.0
20260508035434 61 123 0.0 0.0 0.00 0.00 0.00 85 1015.1
20260508034359 61 123 0.0 0.0 0.00 0.00 0.00 85 1014.6
20260508033926 61 123 0.0 0.0 0.00 0.00 0.00 85 1014.6
20260508033352 61 123 0.0 0.0 0.00 0.00 0.00 85 1015.0
20260508032416 61 123 0.0 0.0 0.00 0.00 0.00 85 1014.8
20260508031926 61 123 0.0 0.0 0.00 0.00 0.00 85 1014.7
20260508031500 61 123 0.0 0.0 0.00 0.00 0.00 84 1015.1
20260508030916 62 123 0.0 0.0 0.00 0.00 0.00 84 1015.0
20260508025905 62 123 0.0 0.0 0.00 0.00 0.00 84 1014.9
20260508025442 62 123 0.0 0.0 0.00 0.00 0.00 84 1014.6
20260508025004 62 123 0.0 0.0 0.00 0.00 0.00 84 1014.5
20260508024412 62 123 0.0 0.0 0.00 0.00 0.00 83 1014.6
20260508023418 62 123 0.0 0.0 0.00 0.00 0.00 83 1014.4
20260508022938 62 123 0.0 0.0 0.00 0.00 0.00 83 1014.3
20260508022351 62 123 0.0 1.0 0.00 0.00 0.00 82 1014.2
20260508021933 62 123 0.0 1.0 0.00 0.00 0.00 82 1014.0
20260508021444 62 123 0.0 0.0 0.00 0.00 0.00 82 1014.3
20260508020850 63 123 0.0 0.0 0.00 0.00 0.00 82 1014.5
20260508020422 63 123 0.0 0.0 0.00 0.00 0.00 82 1014.5
20260508015416 63 123 0.0 0.0 0.00 0.00 0.00 81 1014.4
20260508014433 63 123 0.0 0.0 0.00 0.00 0.00 81 1014.8
20260508013918 64 123 0.0 0.0 0.00 0.00 0.00 81 1014.7
20260508012900 64 123 0.0 2.0 0.00 0.00 0.00 80 1014.4
20260508011903 65 244 0.0 0.0 0.00 0.00 0.00 78 1014.2
20260508010917 65 273 0.0 0.0 0.00 0.00 0.00 76 1014.3
20260508005910 65 254 0.0 0.0 0.00 0.00 0.00 75 1015.0
20260508004846 65 254 0.0 0.0 0.00 0.00 0.00 74 1014.5
20260508004414 66 254 0.0 0.0 0.00 0.00 0.00 75 1014.6
20260508003915 66 254 0.0 0.0 0.00 0.00 0.00 75 1014.6
20260508003416 66 254 0.0 0.0 0.00 0.00 0.00 74 1014.4
20260508002426 66 254 0.0 0.0 0.00 0.00 0.00 73 1014.7
20260508001949 66 254 0.0 0.0 0.00 0.00 0.00 74 1014.4
20260508001455 67 254 0.0 0.0 0.00 0.00 0.00 74 1014.4
20260508000902 67 254 0.0 0.0 0.00 0.00 0.00 73 1013.8
20260508000434 67 255 0.0 0.0 0.00 0.00 0.00 72 1013.9
20260508000002 67 255 0.0 0.0 0.00 0.00 0.00 72 1014.2
20260507235352 67 255 0.0 0.0 0.00 0.00 0.00 72 1014.4
20260507234931 67 255 0.0 0.0 0.00 0.00 0.00 72 1014.5
20260507234349 67 255 0.0 0.0 0.00 0.00 0.00 71 1014.3
20260507233920 68 255 0.0 0.0 0.00 0.00 0.00 71 1014.5
20260507232917 68 254 0.0 0.0 0.00 0.00 0.00 71 1014.6
20260507231912 68 254 0.0 0.0 0.00 0.00 0.00 70 1014.5
20260507231456 68 254 0.0 0.0 0.00 0.00 0.00 70 1014.4
20260507230413 69 254 0.0 0.0 0.00 0.00 0.00 69 1014.7
20260507225413 69 253 0.0 0.0 0.00 0.00 0.00 69 1014.5
20260507224422 69 253 0.0 0.0 0.00 0.00 0.00 68 1014.6
20260507223356 69 253 0.0 0.0 0.00 0.00 0.00 67 1014.5
20260507222926 69 253 0.0 0.0 0.00 0.00 0.00 66 1014.5
20260507221910 69 254 0.0 0.0 0.00 0.00 0.00 63 1014.4
20260507220856 69 275 0.0 0.0 0.00 0.00 0.00 67 1014.8
20260507215901 69 275 0.0 0.0 0.00 0.00 0.00 66 1014.7
20260507214903 69 276 0.0 1.0 0.00 0.00 0.00 66 1014.9
20260507213902 70 252 0.0 0.0 0.00 0.00 0.00 66 1014.9
20260507213428 70 252 0.0 0.0 0.00 0.00 0.00 64 1014.8
20260507212413 70 234 0.0 2.0 0.00 0.00 0.00 66 1014.7
20260507211939 70 235 1.0 2.0 0.00 0.00 0.00 64 1014.9
20260507211348 70 265 1.0 2.0 0.00 0.00 0.00 64 1014.6
20260507210914 70 130 1.0 2.0 0.00 0.00 0.00 63 1014.9
20260507205855 70 278 1.0 2.0 0.00 0.00 0.00 65 1014.8
20260507205440 69 259 0.0 1.0 0.00 0.00 0.00 66 1014.9
20260507204904 69 267 1.0 2.0 0.00 0.00 0.00 65 1015.1
20260507203905 69 255 0.0 1.0 0.00 0.00 0.00 65 1015.3
20260507203441 69 262 1.0 2.0 0.00 0.00 0.00 66 1015.4
20260507202901 69 240 1.0 2.0 0.00 0.00 0.00 64 1015.4
20260507202427 69 259 1.0 3.0 0.00 0.00 0.00 65 1015.3
20260507201933 69 284 0.0 3.0 0.00 0.00 0.00 65 1015.5
20260507200854 69 259 1.0 2.0 0.00 0.00 0.00 63 1015.6
20260507200437 69 236 0.0 2.0 0.00 0.00 0.00 65 1015.6
20260507195909 69 234 1.0 3.0 0.00 0.00 0.00 65 1015.9
20260507194926 69 238 2.0 3.0 0.00 0.00 0.00 63 1015.6
20260507194439 69 268 1.0 3.0 0.00 0.00 0.00 63 1015.7
20260507193911 69 241 1.0 2.0 0.00 0.00 0.00 65 1015.6
20260507192906 68 289 1.0 3.0 0.00 0.00 0.00 64 1015.8
20260507191859 69 278 2.0 3.0 0.00 0.00 0.00 63 1016.3
20260507191443 68 292 0.0 3.0 0.00 0.00 0.00 65 1016.3
20260507185917 69 219 1.0 2.0 0.00 0.00 0.00 63 1016.6
20260507184914 69 340 1.0 2.0 0.00 0.00 0.00 63 1016.8
20260507183914 69 212 1.0 3.0 0.00 0.00 0.00 65 1016.8
20260507182856 68 252 0.0 4.0 0.00 0.00 0.00 65 1016.9
20260507182417 68 254 1.0 4.0 0.00 0.00 0.00 63 1016.8
20260507182002 69 255 1.0 4.0 0.00 0.00 0.00 64 1016.7
20260507181356 68 284 1.0 3.0 0.00 0.00 0.00 66 1016.9
20260507180932 67 235 1.0 3.0 0.00 0.00 0.00 65 1016.9
20260507180506 67 268 1.0 4.0 0.00 0.00 0.00 64 1016.8
20260507175848 67 270 1.0 4.0 0.00 0.00 0.00 67 1017.0
20260507175426 66 270 1.0 4.0 0.00 0.00 0.00 67 1017.0
20260507174417 66 252 0.0 3.0 0.00 0.00 0.00 70 1017.2
20260507173913 65 240 1.0 4.0 0.00 0.00 0.00 69 1017.2
20260507173426 64 158 0.0 4.0 0.00 0.00 0.00 71 1017.3
20260507172945 64 240 2.0 4.0 0.00 0.00 0.00 69 1017.2
20260507172407 64 282 2.0 5.0 0.00 0.00 0.00 69 1017.1
20260507171940 64 265 2.0 5.0 0.00 0.00 0.00 68 1017.2
20260507171402 63 287 2.0 4.0 0.00 0.00 0.00 70 1017.4
20260507170940 63 238 2.0 5.0 0.00 0.00 0.00 69 1017.5
20260507170347 63 294 3.0 5.0 0.00 0.00 0.00 68 1017.6
20260507165924 63 190 2.0 4.0 0.00 0.00 0.00 69 1017.4
20260507165442 63 234 2.0 4.0 0.00 0.00 0.00 70 1017.5
20260507164848 62 256 2.0 5.0 0.00 0.00 0.00 70 1017.6
20260507163902 62 266 0.0 3.0 0.00 0.00 0.00 72 1017.9
20260507162859 61 243 3.0 5.0 0.00 0.00 0.00 70 1018.1
20260507161910 61 227 1.0 5.0 0.00 0.00 0.00 71 1018.1
20260507161445 61 225 2.0 6.0 0.00 0.00 0.00 71 1018.0
20260507160912 61 254 2.0 6.0 0.00 0.00 0.00 71 1018.0
20260507155912 61 287 4.0 6.0 0.00 0.00 0.00 71 1018.0
20260507154915 60 217 1.0 3.0 0.00 0.00 0.00 73 1018.2
20260507153910 60 241 2.0 4.0 0.00 0.00 0.00 73 1018.4
20260507153444 60 219 2.0 4.0 0.00 0.00 0.00 73 1018.4
20260507152901 60 212 2.0 4.0 0.00 0.00 0.00 73 1018.4
20260507151905 59 240 2.0 5.0 0.00 0.00 0.00 75 1018.5
20260507150921 59 274 2.0 4.0 0.00 0.00 0.00 75 1018.4
20260507145912 59 261 2.0 4.0 0.00 0.00 0.00 76 1018.6
20260507144910 59 194 1.0 3.0 0.00 0.00 0.00 76 1018.6
20260507143904 59 225 0.0 2.0 0.00 0.00 0.00 78 1018.8
20260507143414 58 236 0.0 3.0 0.00 0.00 0.00 79 1018.7
20260507142403 58 223 0.0 3.0 0.00 0.00 0.00 81 1018.5
20260507142002 57 270 1.0 3.0 0.00 0.00 0.00 80 1018.4
20260507141358 57 204 1.0 3.0 0.00 0.00 0.00 81 1018.6
20260507140412 57 267 0.0 3.0 0.00 0.00 0.00 83 1018.7
20260507135407 56 254 0.0 3.0 0.00 0.00 0.00 84 1018.5
20260507134417 56 233 1.0 5.0 0.00 0.00 0.00 84 1018.7
20260507133408 55 153 1.0 4.0 0.00 0.00 0.00 86 1018.7
20260507132413 54 250 0.0 1.0 0.00 0.00 0.00 87 1018.6
20260507131412 54 254 0.0 1.0 0.00 0.00 0.00 88 1018.5
20260507130936 54 222 0.0 2.0 0.00 0.00 0.00 89 1018.7
20260507125907 53 215 0.0 2.0 0.00 0.00 0.00 89 1018.6
20260507124854 53 217 0.0 3.0 0.00 0.00 0.00 90 1018.3
20260507123914 52 202 0.0 2.0 0.00 0.00 0.00 90 1018.6
20260507123434 52 180 1.0 2.0 0.00 0.00 0.00 90 1018.7
20260507122409 52 136 0.0 2.0 0.00 0.00 0.00 90 1018.4
20260507121357 52 135 0.0 2.0 0.00 0.00 0.00 90 1018.2
20260507120927 52 135 0.0 2.0 0.00 0.00 0.00 89 1018.3
20260507115902 52 138 0.0 1.0 0.00 0.00 0.00 89 1017.9
20260507114901 52 139 0.0 2.0 0.00 0.00 0.00 89 1017.9
20260507113906 52 136 0.0 1.0 0.00 0.00 0.00 88 1017.5
20260507113411 52 136 0.0 1.0 0.00 0.00 0.00 88 1017.6
20260507112918 52 136 0.0 1.0 0.00 0.00 0.00 88 1017.6
20260507111916 52 224 0.0 1.0 0.00 0.00 0.00 87 1017.4
20260507111444 52 224 0.0 1.0 0.00 0.00 0.00 87 1017.2
20260507110858 52 224 0.0 1.0 0.00 0.00 0.00 87 1017.0
20260507110436 52 225 0.0 1.0 0.00 0.00 0.00 87 1016.9
20260507105858 52 272 0.0 2.0 0.00 0.00 0.00 86 1016.6
20260507104858 53 224 0.0 2.0 0.00 0.00 0.00 85 1016.3
20260507103859 53 236 0.0 1.0 0.00 0.00 0.00 85 1016.2
20260507102859 53 221 0.0 2.0 0.00 0.00 0.00 84 1016.0
20260507101911 53 231 1.0 3.0 0.00 0.00 0.00 83 1015.8
20260507100856 53 226 0.0 4.0 0.00 0.00 0.00 84 1015.7
20260507100432 53 257 1.0 4.0 0.00 0.00 0.00 84 1015.6
20260507095849 53 226 1.0 2.0 0.00 0.00 0.00 84 1015.7
20260507094901 53 242 0.0 2.0 0.00 0.00 0.00 85 1015.8
20260507093905 53 229 1.0 2.0 0.00 0.00 0.00 85 1015.5
20260507093419 53 257 1.0 2.0 0.00 0.00 0.00 85 1015.5
20260507092931 53 245 0.0 2.0 0.00 0.00 0.00 85 1015.6
20260507092351 53 234 1.0 2.0 0.00 0.00 0.00 85 1015.5
20260507091358 53 252 1.0 2.0 0.00 0.00 0.00 86 1015.4
20260507090406 53 252 1.0 2.0 0.00 0.00 0.00 85 1015.3
20260507085410 53 256 1.0 2.0 0.00 0.00 0.00 85 1015.0
20260507083904 53 266 2.0 4.0 0.00 0.00 0.00 85 1015.1
20260507083436 53 288 1.0 3.0 0.00 0.00 0.00 85 1015.1
20260507082853 53 258 1.0 3.0 0.00 0.00 0.00 85 1015.0
20260507082434 53 238 1.0 4.0 0.00 0.00 0.00 85 1014.9
20260507081853 53 276 2.0 4.0 0.00 0.00 0.00 85 1014.9
20260507081430 53 275 2.0 5.0 0.00 0.00 0.00 85 1014.8
20260507080849 53 275 2.0 5.0 0.00 0.00 0.00 85 1014.8
20260507075914 53 269 2.0 4.0 0.00 0.00 0.00 86 1015.0
20260507075406 53 255 2.0 3.0 0.00 0.00 0.00 86 1014.8
20260507074400 53 268 1.0 3.0 0.00 0.00 0.00 86 1015.2